Nellis AFB, NV

8:08 PM PDT on May 25, 2017 (GMT -0700)
Nellis Air Force Base

Weather History for KLSV - October, 2011

Change the Weather History Date:

Monday, October 17, 2011

  Actual Average Record
Temperature  
Mean Temperature 74 °F -  
Max Temperature 86 °F 80 °F 91 °F (2003)
Min Temperature 63 °F 53 °F 44 °F (2013)
Cooling Degree Days 10    
Growing Degree Days 24 (Base 50)    
Moisture  
Dew Point 38 °F    
Average Humidity 22    
Maximum Humidity 40    
Minimum Humidity 16    
Precipitation  
Precipitation 0.00 in - - ()
Sea Level Pressure  
Sea Level Pressure 30.15 in    
Wind  
Wind Speed 13 mph (NE)    
Max Wind Speed 23 mph    
Max Gust Speed 29 mph    
Visibility 8 miles    
Events      
Averages and records for this station are not official NWS values.
T = Trace of Precipitation, MM = Missing Value Source: NWS Daily Summary

Daily Weather History Graph

Daily Weather History Graph

Search for Another Location

Airport or City:

Trip Planner

Search our weather history database for the weather conditions in past years. The results will help you decide how hot, cold, wet, or windy it might be!

Date:

Astronomy

Oct. 17, 2011 Rise Set
Actual Time 6:48 AM PDT 6:01 PM PDT
Civil Twilight 6:22 AM PDT 6:27 PM PDT
Nautical Twilight 5:52 AM PDT 6:57 PM PDT
Astronomical Twilight 5:23 AM PDT 7:27 PM PDT
Moon 9:53 PM PDT (10/17) 11:51 AM PDT (10/17)
Length of Visible Light 12h 04m
Length of Day
11h 12m
Waning Gibbous, 73% of the Moon is Illuminated
Oct 17
Waning Gibbous
Oct 19
Last Quarter
Oct 26
New
Nov 2
First Quarter
Nov 10
Full

Hourly Weather History & Observations

Time (PDT) Temp. Dew Point Humidity Pressure Visibility Wind Dir Wind Speed Gust Speed Precip Events Conditions
12:58 AM 66.2 °F 39.9 °F 38% 30.15 in 7.0 mi NE 4.6 mph - N/A   Clear
1:58 AM 67.3 °F 38.1 °F 34% 30.16 in 5.0 mi WSW 8.1 mph - N/A   Haze
2:58 AM 64.0 °F 39.2 °F 40% 30.16 in 10.0 mi Variable 2.3 mph - N/A   Clear
3:58 AM 63.9 °F 38.5 °F 39% 30.18 in 10.0 mi East 4.6 mph - N/A   Clear
4:58 AM 66.9 °F 37.2 °F 34% 30.20 in 10.0 mi NE 8.1 mph - N/A   Clear
5:59 AM 69.6 °F 36.5 °F 30% 30.22 in 10.0 mi Variable 4.6 mph - N/A   Clear
6:58 AM 70.3 °F 35.8 °F 28% 30.24 in 10.0 mi NE 6.9 mph - N/A   Clear
7:58 AM 76.3 °F 38.1 °F 25% 30.28 in 10.0 mi NE 13.8 mph - N/A   Clear
8:58 AM 78.8 °F 41.0 °F 26% 30.10 in 7.0 mi NE 13.8 mph - N/A   Clear
9:55 AM 80.6 °F 41.0 °F 24% 30.11 in 7.0 mi North 19.6 mph - N/A   Clear
10:55 AM 82.4 °F 41.0 °F 23% 30.12 in 7.0 mi NNE 19.6 mph - N/A   Clear
11:39 AM 84.2 °F 41.0 °F 22% 30.13 in 10.0 mi NNE 17.3 mph - N/A   Clear
11:44 AM 84.2 °F 41.0 °F 22% 30.13 in 10.0 mi NNE 18.4 mph 27.6 mph N/A   Clear
11:49 AM 84.2 °F 41.0 °F 22% 30.13 in 10.0 mi NNE 17.3 mph 27.6 mph N/A   Clear
11:54 AM 84.2 °F 41.0 °F 22% 30.13 in 10.0 mi NNE 17.3 mph - N/A   Clear
11:59 AM 84.2 °F 39.2 °F 20% 30.12 in 8.0 mi NE 20.7 mph - N/A   Clear
12:04 PM 84.2 °F 39.2 °F 20% 30.12 in 8.0 mi NNE 20.7 mph - N/A   Clear
12:09 PM 84.2 °F 39.2 °F 20% 30.12 in 8.0 mi NNE 16.1 mph - N/A   Clear
12:14 PM 84.2 °F 39.2 °F 20% 30.12 in 9.0 mi NNE 19.6 mph - N/A   Clear
12:19 PM 84.2 °F 39.2 °F 20% 30.11 in 7.0 mi NE 18.4 mph 26.5 mph N/A   Clear
12:24 PM 84.2 °F 39.2 °F 20% 30.11 in 6.0 mi NE 23.0 mph - N/A   Haze
12:29 PM 84.2 °F 37.4 °F 19% 30.11 in 5.0 mi NE 20.7 mph 27.6 mph N/A   Haze
12:34 PM 86.0 °F 37.4 °F 18% 30.11 in 4.0 mi NNE 20.7 mph 27.6 mph N/A   Haze
12:39 PM 86.0 °F 37.4 °F 18% 30.10 in 5.0 mi NE 21.9 mph - N/A   Haze
12:44 PM 86.0 °F 37.4 °F 18% 30.10 in 7.0 mi NNE 20.7 mph 26.5 mph N/A   Clear
12:49 PM 86.0 °F 37.4 °F 18% 30.10 in 9.0 mi NNE 20.7 mph 26.5 mph N/A   Clear
12:54 PM 86.0 °F 37.4 °F 18% 30.10 in 10.0 mi NNE 21.9 mph 25.3 mph N/A   Clear
12:59 PM 86.0 °F 37.4 °F 18% 30.10 in 10.0 mi NNE 23.0 mph - N/A   Clear
1:04 PM 84.2 °F 39.2 °F 20% 30.10 in 8.0 mi NE 19.6 mph - N/A   Clear
1:09 PM 84.2 °F 39.2 °F 20% 30.09 in 5.0 mi NE 18.4 mph - N/A   Haze
1:14 PM 86.0 °F 37.4 °F 18% 30.09 in 4.0 mi NE 18.4 mph - N/A   Haze
1:19 PM 86.0 °F 37.4 °F 18% 30.09 in 4.0 mi NE 21.9 mph - N/A   Haze
1:24 PM 84.2 °F 37.4 °F 19% 30.09 in 4.0 mi NE 19.6 mph - N/A   Haze
1:29 PM 84.2 °F 37.4 °F 19% 30.09 in 4.0 mi NE 21.9 mph 28.8 mph N/A   Haze
1:58 PM 86.2 °F 34.3 °F 16% 30.30 in 6.0 mi NNE 20.7 mph 26.5 mph N/A   Haze
2:58 PM 85.8 °F 38.3 °F 19% 30.29 in 2.5 mi NE 21.9 mph - N/A   Haze
3:03 PM 86.0 °F 39.2 °F 19% 30.07 in 10.0 mi NE 17.3 mph 24.2 mph N/A   Clear
3:23 PM 86.0 °F 39.2 °F 19% 30.07 in 10.0 mi NE 16.1 mph - N/A   Clear
3:58 PM 85.3 °F 39.2 °F 20% 30.28 in 10.0 mi ENE 18.4 mph 26.5 mph N/A   Clear
4:58 PM 84.2 °F 39.0 °F 20% 30.27 in 10.0 mi NE 18.4 mph - N/A   Clear
5:58 PM 81.5 °F 37.4 °F 21% 30.05 in 10.0 mi ENE 12.7 mph - N/A   Clear
6:58 PM 77.4 °F 35.1 °F 22% 30.28 in 10.0 mi ENE 9.2 mph - N/A   Clear
7:58 PM 73.9 °F 34.5 °F 24% 30.29 in 10.0 mi East 10.4 mph - N/A   Clear
8:58 PM 74.1 °F 32.0 °F 21% 30.30 in 10.0 mi East 5.8 mph - N/A   Clear
9:58 PM 76.1 °F 30.2 °F 19% 30.31 in 10.0 mi Variable 2.3 mph - N/A   Clear
10:58 PM 73.6 °F 28.0 °F 19% 30.11 in 10.0 mi NE 6.9 mph - N/A   Clear
11:58 PM 72.5 °F 25.5 °F 17% 30.12 in 10.0 mi Variable 5.8 mph - N/A   Clear